Location: Bishop�s Knoyle
(51.0728°N, 2.1714°W)
Time: 08:06:32
(UTC+00:00)

BEESAT 2 - Pass Details

Date: 05 December 2021
Orbit: 498 x 513 km, 64.9° (Epoch: 20 January)

Event Time Altitude Azimuth Distance (km) Brightness Sun altitude
Exits shadow 04:00:04 11° 66° (ENE) 1,710 ? -35.8°
Drops below altitude 10° 04:00:13 10° 68° (ENE) 1,750 ? -35.8°
Sets 04:02:59 0° 88° (E) 2,633 ? -35.4°
